Theta_e
315 315 315 314 316 319 318 318 320 319 318 318 317 315 312 311 311 315 318 316 317 316 315 316 316 316 317 317 318 317 318 318 317 320 321 320 327 331 332 335 334 334 334 331 327 328 328 327 328 325 323 327 329 329 331 331 331 331 333 334 333 331 328 326 326 325 324 324 323 322 323 322 321 321 323 324 325 325 326 326 325 326 326 325 326 326
316 315 315 316 320 321 320 321 320 320 319 318 316 314 312 313 313 316 317 317 317 317 316 317 316 316 317 317 318 318 317 317 316 319 320 319 321 325 328 335 335 332 330 328 328 328 325 325 327 325 323 327 330 330 331 331 331 331 333 335 334 328 325 325 325 324 324 323 322 321 323 322 321 320 322 323 323 323 323 322 321 322 323 322 321 321
316 314 314 317 320 320 319 320 319 319 318 317 316 313 311 312 313 317 319 317 318 316 315 317 316 316 318 317 317 318 317 318 318 318 320 320 320 320 321 332 334 332 330 328 329 329 324 324 327 327 325 327 329 331 331 330 331 331 332 333 333 327 322 324 324 322 322 321 321 321 321 322 322 321 321 320 320 320 320 321 321 322 322 321 320 319
313 315 316 317 319 319 318 318 318 317 316 316 315 311 310 312 313 312 317 319 317 316 316 317 315 316 319 318 317 319 318 319 319 318 320 319 320 321 319 328 333 333 332 329 330 329 326 325 326 328 328 327 328 331 331 330 331 332 331 330 330 325 321 323 323 322 322 321 321 321 322 322 321 319 318 319 319 320 321 322 322 322 320 320 320 320
313 315 318 317 317 317 316 316 317 316 314 315 316 313 311 313 313 313 317 319 318 319 319 317 314 315 317 317 316 319 318 318 318 317 319 318 318 321 322 326 333 335 333 331 332 330 329 329 327 326 328 326 326 329 331 331 332 331 329 329 328 325 322 321 322 322 322 322 322 322 321 319 318 317 317 319 319 320 321 322 321 321 320 319 320 320
314 317 318 317 316 316 315 316 317 317 314 313 316 316 314 315 316 316 318 318 316 316 319 318 313 312 315 315 317 317 317 317 318 317 317 318 318 318 321 324 330 335 334 333 331 329 331 331 328 326 326 326 326 328 329 329 331 329 326 329 330 325 322 320 321 323 323 323 322 321 319 317 316 318 319 319 319 319 321 321 321 321 321 320 320 320
315 316 316 316 316 316 316 315 316 319 314 312 316 317 317 317 317 316 317 315 314 314 318 319 314 311 312 314 317 317 316 317 318 319 317 317 318 316 319 321 322 331 334 333 331 331 331 329 328 327 325 325 325 326 327 326 329 329 327 329 328 324 322 320 322 323 322 323 322 321 319 316 317 319 321 320 319 319 320 321 321 321 320 320 320 320
315 316 316 316 316 316 315 314 316 318 314 314 317 318 316 317 317 317 316 314 314 314 316 317 314 312 311 313 317 317 316 318 317 319 318 317 317 316 318 320 320 323 329 330 332 334 332 328 329 329 327 327 324 324 326 326 329 329 328 329 325 324 322 320 323 322 321 323 321 319 318 316 319 320 320 320 319 319 320 320 320 320 320 321 321 321
316 316 316 316 315 315 314 314 316 316 315 316 318 317 317 318 317 316 314 313 314 314 312 313 314 312 311 313 317 317 315 316 318 318 318 316 317 318 318 318 319 321 323 324 328 332 332 329 330 329 329 328 325 326 327 327 329 327 328 328 325 325 323 321 323 321 320 321 319 318 318 318 320 320 319 319 318 318 320 320 320 320 320 320 319 319
316 315 316 315 315 315 314 315 316 316 317 317 318 317 317 317 317 316 315 312 313 314 311 312 312 312 311 312 314 315 314 315 318 318 318 317 317 318 319 320 319 320 321 320 322 329 330 330 331 329 329 327 325 327 327 328 330 327 328 328 325 325 324 322 323 320 319 320 319 318 318 319 320 319 319 319 318 318 319 320 320 319 319 318 317 315
315 315 315 315 314 314 315 315 315 315 317 317 317 317 316 316 316 316 314 312 313 314 313 312 313 312 312 312 312 314 315 316 318 318 317 318 318 318 320 320 319 319 319 318 319 324 327 327 327 326 328 328 327 328 327 329 331 329 329 329 326 325 325 323 321 320 321 321 319 319 319 319 319 318 319 319 318 318 319 320 319 318 318 318 316 314
314 314 314 313 313 313 314 314 314 315 315 316 316 315 314 313 314 313 313 313 315 314 313 312 313 312 311 312 313 316 317 317 318 318 317 318 318 319 319 318 318 318 319 318 318 323 328 329 328 327 328 329 328 329 328 330 329 328 329 330 327 326 326 323 321 320 322 321 319 320 319 319 318 318 319 319 318 318 319 319 319 318 318 317 316 315
313 314 314 314 313 312 312 312 312 313 314 314 313 312 312 311 313 315 314 314 315 314 313 314 313 312 311 313 315 316 317 317 317 318 318 319 318 319 319 317 318 319 319 320 321 324 328 331 331 330 331 331 331 330 329 329 328 327 329 331 327 327 326 323 321 321 322 322 321 320 320 318 318 318 319 319 318 319 318 318 319 318 317 317 316 315
313 315 314 314 313 313 312 310 309 310 312 313 311 310 311 312 316 318 316 316 317 315 314 314 314 313 311 313 316 317 316 317 318 317 319 319 320 319 318 317 319 320 320 321 323 325 326 330 333 332 332 332 331 332 332 330 330 330 332 331 327 327 326 323 323 323 322 323 322 321 320 319 318 317 318 319 318 319 318 318 318 318 318 317 316 316
312 313 314 314 314 313 312 311 311 311 312 313 313 312 311 312 316 318 316 315 316 315 313 314 314 312 311 313 316 316 316 318 317 317 319 319 319 319 317 316 318 320 320 323 325 326 326 329 333 332 332 333 331 332 332 331 332 331 330 329 327 326 326 324 323 323 322 323 323 321 320 319 318 317 318 318 318 318 318 318 318 318 318 318 317 317
310 311 313 314 314 313 313 313 313 312 311 313 314 313 311 312 314 315 315 314 314 314 313 313 313 313 314 317 318 316 317 317 316 316 316 317 317 317 317 317 319 321 321 322 325 326 327 328 330 329 330 332 331 331 330 329 330 329 328 327 327 327 326 323 322 322 322 323 323 323 321 320 319 317 317 318 318 317 318 317 317 318 318 318 318 318
309 309 312 314 313 314 313 312 314 312 310 312 311 310 312 314 314 312 313 314 313 314 313 312 312 313 314 317 316 316 317 315 314 315 314 316 317 316 318 319 320 320 321 322 323 325 326 328 328 328 328 330 331 328 328 329 328 327 328 326 323 325 326 324 321 321 322 323 323 323 321 321 320 318 316 317 318 317 317 318 317 316 318 318 318 319
311 310 313 313 312 313 313 312 313 312 311 310 309 310 312 313 313 313 312 312 313 315 314 312 311 311 310 313 316 316 317 315 314 314 314 315 317 316 318 320 320 320 321 322 322 323 325 327 328 328 327 329 328 327 327 329 327 325 326 326 324 325 327 325 321 321 322 323 323 323 322 321 320 319 318 317 318 317 317 318 317 316 317 318 319 319
313 311 312 313 312 313 313 312 311 312 312 310 309 311 311 310 310 311 311 311 313 314 314 311 310 309 307 310 314 316 316 316 315 314 314 315 316 317 318 320 320 321 322 322 322 322 323 325 326 327 327 328 327 327 327 328 326 325 325 327 326 325 326 325 323 322 322 322 323 323 322 321 321 321 320 319 319 319 317 318 319 317 316 318 320 321
313 312 312 313 312 312 312 312 310 311 312 311 311 311 310 309 310 310 311 312 312 313 313 312 311 309 311 314 315 315 316 316 316 315 315 314 315 316 318 320 320 322 323 321 320 321 322 323 325 326 326 327 327 326 325 325 326 327 326 327 327 325 326 326 325 323 322 322 323 323 322 322 322 322 321 321 321 321 319 318 319 318 317 318 320 322
312 313 314 313 312 312 310 311 311 310 311 310 310 309 309 310 310 310 310 309 310 311 312 313 311 311 317 320 315 315 318 317 316 316 315 314 315 316 318 320 321 321 322 322 321 321 321 323 323 323 324 325 326 325 325 325 325 325 325 326 326 326 326 325 325 324 323 323 323 322 322 322 322 321 320 320 321 321 320 318 318 318 318 318 319 321
312 313 313 311 310 309 309 312 312 311 312 311 311 310 311 312 312 313 312 309 309 310 310 312 311 312 319 321 315 316 318 317 315 315 315 314 315 317 319 321 321 321 321 322 322 322 321 322 322 322 322 323 323 323 324 324 325 325 325 325 325 325 325 324 324 323 323 324 322 321 321 321 321 321 320 320 321 321 320 318 318 319 319 318 319 320
315 313 313 311 311 310 311 312 312 311 312 312 312 312 312 313 312 313 313 311 311 311 311 312 311 314 319 317 315 317 316 316 316 316 315 315 317 319 319 320 320 320 320 320 321 322 322 322 321 321 321 321 322 321 321 321 322 324 324 324 324 324 323 323 324 323 323 323 321 321 322 321 320 322 321 320 320 320 319 319 319 319 319 318 319 320
314 313 312 312 311 310 310 310 310 311 310 311 311 311 311 311 311 312 312 312 311 310 311 311 312 316 321 319 316 317 315 315 316 316 314 316 318 320 319 319 320 320 320 319 319 320 320 320 319 319 319 319 319 320 319 319 318 320 321 323 323 323 323 323 323 323 322 322 322 321 323 323 323 323 323 322 320 321 320 320 320 321 320 318 318 319
313 312 312 312 311 310 310 309 309 309 310 310 311 311 312 311 311 313 311 311 311 310 310 312 312 314 320 319 315 314 315 315 315 316 315 317 319 318 318 319 320 320 319 318 319 319 318 317 317 317 317 316 317 317 318 317 316 317 318 318 320 321 322 323 323 324 323 323 324 325 326 327 326 325 324 323 323 322 321 321 320 320 320 320 320 320
313 313 312 312 313 312 312 310 309 310 310 310 311 311 312 311 312 313 310 310 312 311 311 313 312 313 317 317 316 316 315 314 315 315 315 317 318 317 318 320 320 319 318 317 318 318 318 317 315 314 315 315 315 316 315 315 315 315 315 315 315 316 318 319 321 324 324 324 325 325 325 326 326 326 323 322 322 322 321 320 320 320 319 320 320 320
311 312 311 311 312 312 311 310 310 310 310 310 310 310 311 311 312 312 311 311 312 313 313 313 313 314 315 315 319 320 318 315 316 316 315 318 319 318 320 321 320 318 317 317 317 318 317 317 315 314 314 314 313 314 314 313 313 313 313 313 313 313 313 314 316 319 320 320 320 320 320 321 322 323 323 321 319 319 319 319 319 319 319 320 319 318
309 309 310 310 310 310 309 309 309 310 309 308 309 309 310 310 311 312 313 312 313 314 314 314 315 316 314 314 317 318 318 316 316 317 318 319 319 318 319 319 318 317 317 317 316 316 315 315 316 315 313 312 313 313 313 313 312 312 311 311 311 311 311 311 312 313 313 313 312 313 313 314 313 316 320 320 317 315 317 319 319 318 319 319 319 318
308 308 309 309 309 309 309 309 309 309 309 309 308 308 308 309 310 312 313 312 312 313 314 314 316 317 315 313 314 315 316 316 315 317 320 319 317 318 319 317 315 315 316 316 316 316 315 314 315 316 314 312 312 312 312 312 312 311 310 310 310 310 310 310 310 311 311 310 310 310 311 311 312 314 317 319 318 316 317 318 318 317 318 319 319 319
310 309 310 309 309 309 308 309 309 308 308 308 308 308 308 308 310 311 311 311 312 313 313 314 317 318 316 313 313 314 315 316 314 315 317 315 315 317 317 316 314 314 314 315 315 315 315 315 315 314 314 313 312 312 312 312 312 311 310 310 309 309 309 309 310 310 310 310 310 311 311 312 312 312 313 314 316 316 316 316 316 315 316 316 316 315
311 310 310 310 310 309 309 308 308 308 308 307 307 307 307 308 309 310 311 312 313 313 313 315 317 317 315 312 313 314 314 315 314 313 314 314 313 315 315 315 314 313 313 313 314 315 315 315 314 313 313 312 312 311 311 311 311 310 309 308 308 308 309 309 309 309 308 308 308 309 310 310 310 309 310 311 312 312 314 314 315 314 315 315 315 315
310 309 310 310 310 310 309 308 308 308 307 307 308 308 308 309 310 310 310 312 313 314 314 315 315 314 312 312 312 313 313 313 314 314 315 315 313 313 314 314 314 314 313 312 313 314 314 314 313 314 313 312 311 310 310 310 310 310 309 307 307 308 308 308 308 309 308 309 308 308 308 309 308 309 309 310 310 310 311 312 313 314 314 315 316 316
309 310 310 310 310 309 308 308 308 308 308 308 309 309 310 310 310 310 310 312 313 314 313 312 312 311 312 313 312 312 312 313 313 314 314 315 315 313 314 314 314 314 314 314 312 313 314 313 313 313 312 311 310 310 309 309 310 310 309 308 307 308 307 307 307 308 308 308 308 308 308 308 308 309 309 309 309 309 309 309 311 312 314 315 315 315
309 309 309 308 309 309 309 308 309 309 309 309 309 309 310 310 310 310 310 311 312 311 311 310 310 310 311 311 311 311 311 312 312 312 313 314 314 313 313 314 314 313 314 314 313 312 314 314 313 312 311 310 310 309 308 308 309 309 308 308 308 308 307 307 307 308 308 307 307 307 307 308 309 309 309 309 309 309 308 309 309 311 313 315 314 314
308 308 307 308 308 308 308 308 309 309 309 308 309 310 309 309 309 309 309 309 309 309 309 310 310 310 309 309 309 310 310 310 310 310 311 312 312 312 313 313 313 314 314 314 315 316 315 313 312 311 310 310 309 308 307 307 308 308 308 308 308 308 308 307 307 308 308 307 307 306 307 309 309 308 308 308 308 308 308 308 309 309 311 314 314 314
307 307 307 307 307 308 308 308 308 309 308 307 310 311 311 310 310 309 309 309 309 309 309 309 309 309 308 309 309 308 309 309 308 309 310 310 310 311 311 311 312 314 314 314 315 315 313 311 310 310 309 308 308 307 307 307 308 308 308 308 308 308 308 307 307 307 307 307 307 307 308 308 309 308 308 308 308 308 308 308 308 309 310 312 314 314
307 307 308 307 307 307 307 307 308 308 308 309 311 310 310 311 310 309 309 309 308 308 308 308 308 307 307 308 308 308 308 307 308 309 309 309 309 309 308 309 310 313 315 314 313 312 311 310 310 309 308 308 308 307 307 307 308 308 308 308 307 308 307 307 307 306 307 307 306 306 307 309 308 308 308 308 307 308 307 307 308 308 309 311 312 313
307 307 307 307 307 307 307 307 307 307 308 309 310 309 308 308 309 308 307 307 307 307 306 307 307 307 306 306 306 306 307 307 308 309 308 307 308 307 307 308 308 310 312 312 311 310 310 310 309 308 308 307 307 307 307 306 307 307 308 308 307 308 308 307 307 307 307 307 306 306 307 308 308 308 308 308 308 308 307 307 307 308 308 310 311 312
306 306 306 306 306 306 307 307 307 307 308 309 309 307 306 306 307 307 306 306 306 306 306 306 306 305 305 305 305 305 306 306 308 308 306 306 306 306 306 307 307 307 308 309 309 309 309 308 307 307 307 306 306 306 306 306 307 307 307 307 307 307 307 307 307 306 306 306 306 306 306 306 307 307 308 308 308 308 308 308 308 308 308 309 311 312
306 306 305 305 306 306 306 306 306 307 308 308 306 305 305 305 305 305 305 305 305 304 304 304 304 304 304 304 304 305 305 306 306 306 305 305 305 306 306 306 306 306 306 306 306 306 306 306 306 306 306 306 306 305 306 306 306 306 306 306 306 306 306 306 306 306 306 306 306 306 305 306 306 307 307 308 309 309 309 308 308 307 308 308 310 311
306 306 305 305 305 306 306 306 306 307 307 305 304 304 304 304 305 304 304 304 303 303 303 304 303 303 304 303 303 303 304 304 304 304 304 304 304 305 305 305 305 305 305 305 305 305 305 304 305 305 305 305 305 306 305 306 305 305 305 306 305 305 306 306 306 306 306 306 306 306 305 305 305 306 306 307 308 308 309 308 308 307 308 308 309 311
306 306 306 305 305 305 305 305 306 306 305 303 302 302 303 304 304 303 302 302 302 302 302 302 302 302 302 303 303 302 303 303 303 303 303 303 303 303 304 304 305 305 305 305 304 304 304 304 304 304 305 304 305 305 305 305 305 305 305 305 305 305 305 305 306 305 305 305 305 305 305 305 304 305 306 306 306 307 308 309 308 308 307 308 309 312
304 304 304 305 305 304 305 305 305 305 303 302 301 301 302 302 302 301 300 300 300 300 301 301 301 301 301 302 302 301 301 301 301 302 302 302 302 303 303 303 304 304 304 304 304 304 304 304 304 304 304 304 304 304 304 304 304 305 305 305 305 305 305 305 305 305 305 305 305 305 305 304 304 304 305 305 305 306 307 309 309 309 308 309 311 313
303 303 303 303 303 303 303 304 304 303 302 301 301 300 300 301 300 300 299 299 299 299 299 299 300 300 300 300 300 300 300 300 301 301 301 301 301 301 302 302 302 303 303 303 303 303 303 303 303 303 303 303 303 303 303 303 304 304 304 304 305 304 305 304 305 304 305 304 304 304 304 304 304 304 304 305 305 305 306 308 308 309 310 311 313 312
302 302 301 301 301 302 302 302 302 302 301 300 300 299 299 300 299 299 299 299 298 299 299 299 298 299 299 299 299 299 299 299 299 300 300 300 300 300 300 301 301 301 302 302 302 302 302 302 302 303 303 303 303 303 303 303 303 304 304 304 304 304 304 304 304 304 305 304 304 304 304 304 304 304 304 304 305 305 306 307 308 310 312 312 312 312
301 301 301 300 300 300 300 300 300 300 300 299 299 299 299 299 298 298 299 298 298 298 298 298 298 298 298 297 298 298 298 298 298 299 299 299 299 300 300 300 300 300 300 301 301 302 302 302 302 302 302 302 302 302 302 302 302 303 303 303 303 304 304 304 304 304 304 304 304 304 304 304 304 304 304 304 305 305 306 306 308 310 311 311 310 309
299 299 299 299 299 299 299 299 299 299 299 298 298 298 298 298 298 299 298 298 298 298 298 298 298 298 298 297 297 297 297 298 298 298 298 298 298 299 299 299 299 300 300 300 300 301 301 301 301 301 301 301 302 302 302 302 302 303 303 303 303 303 303 303 303 303 303 304 304 304 304 304 304 304 304 304 304 304 305 307 309 310 310 310 308 307
299 298 298 298 298 298 298 298 298 298 298 298 298 298 298 298 298 298 298 298 298 298 298 298 298 298 297 297 297 298 298 298 298 298 298 298 298 299 299 299 299 299 300 300 300 300 300 300 300 300 300 300 301 301 301 302 302 302 303 303 303 303 303 303 303 303 303 303 303 303 304 303 303 304 304 304 304 305 307 309 309 309 309 309 307 305
299 298 297 297 297 297 297 297 297 298 298 298 298 298 298 298 298 298 298 298 298 297 298 298 298 298 298 298 298 298 298 299 298 298 298 298 298 299 299 299 299 300 300 300 300 300 299 300 300 300 300 300 300 301 301 302 302 302 302 302 302 302 303 303 303 303 303 303 302 303 303 303 303 303 303 304 306 307 308 308 308 308 307 308 307 304
298 297 297 297 297 297 297 297 297 298 297 297 297 297 298 298 298 298 298 298 298 298 298 298 298 299 299 299 299 299 299 298 299 299 299 299 299 299 299 299 299 299 299 299 300 300 300 299 300 300 300 300 300 301 301 302 302 302 302 302 302 302 302 302 303 303 303 303 302 303 303 302 303 302 302 305 306 306 305 305 306 306 305 305 304 302
297 297 297 297 297 297 297 297 297 298 297 298 298 298 297 298 298 298 298 298 298 298 298 298 298 298 298 298 299 298 298 298 299 299 299 299 299 299 299 299 299 299 299 300 300 300 300 300 300 300 300 300 300 301 301 302 302 302 302 302 302 302 302 302 303 303 303 303 303 303 303 303 303 303 304 306 305 303 301 301 301 301 301 301 301 300
Wind_Speed
6 6 6 8 5 3 6 4 3 8 10 12 12 5 6 7 6 7 4 9 5 5 8 9 11 12 8 9 9 10 11 8 7 7 5 6 8 13 14 17 18 15 14 17 20 22 21 21 21 23 21 18 23 24 23 22 19 20 19 17 17 15 15 14 12 11 9 9 7 4 7 7 5 4 6 6 6 6 6 5 6 7 6 6 6 6
4 6 8 9 2 3 4 6 5 7 9 9 10 7 4 6 6 5 4 10 7 3 5 8 12 11 9 12 9 8 7 4 5 9 5 8 7 8 10 16 19 13 13 16 14 17 21 22 22 24 24 21 23 25 25 24 21 20 19 18 18 16 15 13 12 10 8 8 7 5 6 8 6 6 9 9 6 6 6 6 6 8 7 7 6 6
5 8 13 11 3 3 2 6 6 7 8 8 7 6 5 7 5 2 5 6 8 4 6 9 11 10 10 12 8 4 6 4 6 10 8 9 8 7 7 10 16 12 13 15 12 15 20 22 24 24 25 25 24 25 26 24 22 21 21 19 18 17 15 13 12 10 8 8 6 5 6 9 10 12 14 12 8 7 7 8 7 8 7 7 7 6
6 6 9 6 5 2 4 4 6 6 6 7 6 6 6 7 8 1 5 2 3 3 5 9 8 9 7 7 7 8 10 7 8 12 12 9 7 8 8 7 16 15 14 14 12 14 16 20 25 22 21 24 23 22 25 25 23 22 21 19 18 17 16 15 13 12 11 9 8 9 11 12 14 12 11 11 9 8 9 9 9 9 8 8 8 8
11 1 6 6 5 1 5 4 5 5 5 7 8 9 9 8 9 5 4 3 4 3 5 10 7 6 7 6 7 12 11 8 9 14 10 7 7 7 6 4 14 16 14 13 12 12 12 14 22 23 19 21 23 22 24 26 25 24 21 20 19 19 19 18 15 14 13 12 11 11 11 12 13 11 10 11 9 8 9 10 9 9 9 9 9 9
8 1 6 5 3 4 5 5 7 6 6 8 9 11 12 12 11 7 2 5 3 5 6 7 7 6 8 10 11 12 8 9 11 11 8 8 9 8 7 5 9 15 16 14 13 12 10 11 18 25 23 21 22 23 25 24 23 25 22 21 22 21 21 20 17 16 16 14 13 13 12 12 14 13 13 12 10 10 11 11 10 9 10 10 10 10
3 1 1 2 3 5 7 7 8 7 6 6 4 6 11 12 12 9 4 3 4 6 6 8 7 6 7 9 12 13 12 12 10 9 9 10 10 9 8 5 5 9 13 13 12 9 7 9 14 20 24 26 25 23 25 26 24 27 25 24 24 21 22 22 18 18 18 17 15 15 15 15 16 15 14 13 12 12 12 11 10 10 10 10 11 10
5 4 1 4 4 6 8 7 9 9 8 4 2 6 10 9 11 11 8 6 6 6 5 8 8 7 6 8 9 10 11 12 10 10 10 10 11 11 8 7 7 7 11 12 11 11 10 13 16 18 22 27 29 26 28 29 26 29 27 25 23 20 24 25 21 21 20 18 17 16 16 15 16 17 16 15 14 13 12 12 11 11 10 10 10 10
3 5 5 6 7 6 7 8 10 11 9 5 3 7 9 9 11 11 8 8 7 7 6 7 9 7 5 8 9 8 9 9 9 10 10 10 10 10 9 10 10 8 9 8 8 12 15 17 20 22 22 26 26 23 26 29 30 31 27 26 25 21 25 27 23 23 21 19 19 16 15 15 17 19 17 16 15 14 13 13 13 12 11 10 10 11
4 6 5 5 7 7 9 12 12 10 8 5 5 6 8 9 11 9 8 7 6 7 8 8 9 6 6 7 7 8 9 8 8 8 9 8 7 3 2 1 1 2 2 1 2 7 13 18 23 24 23 27 28 21 20 22 27 34 29 28 29 24 27 29 25 24 22 20 20 18 16 18 20 19 18 18 16 15 14 13 14 13 12 11 11 11
7 4 3 5 8 8 9 12 9 5 5 4 3 6 8 9 9 8 7 6 6 7 9 12 12 8 7 6 6 6 5 7 7 8 8 6 3 1 3 3 3 4 4 4 3 1 5 12 20 23 20 24 26 22 22 17 15 30 33 31 32 26 28 31 27 25 23 22 21 18 17 20 21 20 20 20 17 15 15 14 14 14 13 12 11 11
9 7 6 7 9 8 9 9 6 4 6 5 4 6 7 6 7 6 5 5 6 7 8 11 13 11 8 5 5 4 6 7 6 7 7 8 6 3 4 2 1 2 4 4 5 6 6 3 6 14 18 22 23 25 31 25 17 27 33 34 32 28 29 31 29 27 24 23 22 18 18 21 21 21 22 21 18 17 16 15 16 16 15 14 12 10
8 7 8 9 9 9 9 7 6 7 7 6 6 6 6 5 4 5 5 5 6 7 6 6 8 9 7 6 6 1 8 8 4 4 8 9 8 7 6 3 3 3 3 3 5 7 7 6 3 7 15 23 24 26 35 35 32 34 35 37 34 29 32 33 29 29 26 24 23 20 20 22 22 21 21 21 19 18 17 16 17 18 17 15 14 12
5 8 10 8 9 9 8 6 6 5 6 6 6 6 6 5 5 6 6 6 6 6 6 5 5 5 5 6 7 4 7 8 6 7 8 8 7 7 5 4 5 4 5 6 6 6 5 4 5 6 9 20 26 25 27 29 33 33 28 34 36 31 33 33 29 28 25 24 23 21 21 22 23 22 21 21 20 18 18 17 17 17 17 17 16 14
6 7 8 9 6 9 8 8 8 6 5 7 6 6 6 4 5 6 5 5 5 4 6 6 3 3 3 2 3 5 7 7 6 7 7 7 7 6 5 3 5 6 7 6 5 5 4 4 6 10 5 13 23 20 17 19 23 21 15 20 28 31 33 31 29 28 25 23 23 21 21 22 23 23 21 21 20 19 19 17 16 16 17 17 16 16
9 6 6 8 3 6 6 9 7 8 6 4 4 6 6 4 5 5 5 6 5 4 5 5 4 3 0 2 1 6 9 7 6 7 8 8 7 7 5 4 5 7 7 6 6 6 5 5 4 9 10 9 20 19 19 19 20 21 18 16 16 23 31 30 28 27 23 22 22 21 22 22 22 22 21 21 21 19 19 18 17 15 16 17 16 17
7 4 5 9 5 5 9 8 3 4 3 1 3 5 4 4 5 5 6 6 5 6 5 4 5 5 2 3 5 7 8 9 8 9 9 9 8 6 5 4 6 7 7 7 7 7 6 7 6 6 8 10 18 20 19 20 22 25 26 23 18 18 26 27 27 27 23 21 20 19 20 21 21 21 20 20 21 20 18 19 19 15 15 17 17 17
3 4 3 5 6 9 9 4 4 5 5 4 4 2 2 5 6 5 5 5 5 6 5 4 7 8 6 5 7 9 9 9 9 9 10 10 8 6 5 5 7 8 7 8 8 7 7 7 9 8 6 9 14 16 16 17 21 23 22 25 26 23 23 24 25 26 23 20 18 18 18 18 18 19 19 17 19 20 17 16 18 16 14 15 17 17
2 5 6 5 8 9 7 4 6 8 8 9 8 6 4 4 5 4 4 5 5 6 5 7 9 8 6 3 7 11 10 9 10 11 11 11 10 7 7 7 8 8 7 8 8 7 7 6 9 11 8 7 8 11 12 10 14 18 18 20 25 23 20 20 20 21 20 17 16 16 15 16 15 15 16 14 15 19 19 15 15 15 14 14 15 17
3 4 5 7 11 9 4 4 4 5 8 11 9 8 6 4 5 5 4 4 5 6 5 7 8 5 3 2 4 9 9 9 9 8 8 9 10 8 8 7 7 7 6 7 8 8 7 7 9 11 11 9 8 9 11 5 4 8 12 16 20 19 17 17 15 16 17 15 14 15 14 14 13 12 13 10 9 16 18 15 13 13 15 14 15 16
4 3 3 7 10 8 4 3 5 6 6 7 7 7 6 5 5 6 5 5 6 6 4 6 6 2 1 2 2 6 8 9 7 6 6 7 8 8 9 7 7 7 6 7 8 9 8 8 10 10 10 11 11 12 11 5 4 8 10 13 17 17 18 17 12 12 15 12 10 12 12 12 11 10 12 9 7 12 15 13 11 10 12 14 14 16
2 3 5 6 7 7 6 6 9 9 7 6 5 5 5 5 4 5 7 6 6 6 5 6 6 1 1 1 1 3 5 5 7 8 7 6 8 9 9 8 7 7 7 8 9 9 9 9 11 11 9 9 10 12 12 10 5 6 10 15 17 18 17 14 11 12 12 10 10 10 11 13 13 10 12 12 8 10 13 14 12 9 10 13 12 15
2 2 5 7 6 8 10 11 13 11 7 7 7 7 7 6 3 4 7 5 5 6 5 7 5 1 1 1 2 2 1 1 5 6 6 6 8 9 9 9 7 8 8 8 9 9 9 10 13 13 12 11 10 10 11 12 12 12 12 13 15 18 18 14 13 13 11 9 11 11 11 14 15 12 13 14 13 12 14 16 11 5 6 11 10 11
2 2 5 7 7 9 11 13 15 13 7 7 8 7 8 9 7 7 7 5 5 7 6 7 5 1 3 4 3 0 3 3 6 7 7 6 9 8 8 9 8 7 9 9 9 8 9 12 14 14 14 13 12 11 11 12 13 15 15 13 12 15 17 14 14 16 14 10 10 11 10 10 12 13 12 13 16 15 15 16 12 4 3 7 8 8
1 2 4 6 6 7 8 8 9 9 7 6 6 5 7 11 11 10 8 6 6 8 9 8 6 2 1 2 1 2 3 3 6 8 6 6 9 8 7 8 7 7 8 9 9 9 10 11 12 13 14 14 13 12 11 12 12 13 15 15 15 14 13 11 11 12 12 11 10 10 9 8 8 8 9 11 13 14 14 13 12 8 4 4 5 6
3 3 4 6 6 6 6 5 3 3 5 5 4 6 8 11 11 9 7 6 6 8 9 8 7 2 3 2 2 5 6 4 4 7 8 9 9 8 7 8 7 7 7 9 9 8 8 8 10 12 14 15 15 14 13 13 12 12 14 15 16 16 16 14 11 10 10 10 11 10 10 9 7 4 5 8 10 11 12 11 9 10 10 7 7 10
3 4 6 8 8 8 9 9 10 8 8 8 8 10 11 9 10 9 6 6 6 7 7 8 8 6 1 1 2 5 7 8 4 3 3 7 9 6 5 6 6 6 7 8 8 7 7 8 9 11 13 14 15 14 14 14 13 13 13 13 13 14 15 15 14 13 13 12 12 12 13 14 12 8 5 5 7 8 10 9 7 8 11 11 12 17
3 5 8 11 12 14 14 15 15 13 13 13 11 13 14 11 10 9 6 8 8 7 8 8 8 9 8 7 4 4 5 7 6 5 5 1 6 6 5 6 8 8 8 7 7 8 9 9 8 9 12 14 14 14 14 14 14 13 13 13 12 12 12 13 13 13 12 12 12 12 11 12 12 10 7 4 4 4 5 7 7 7 9 11 15 22
4 6 8 11 14 15 16 16 15 14 14 14 13 15 15 14 13 11 10 11 10 8 10 10 9 10 10 11 11 6 4 2 6 3 3 4 4 7 9 10 10 10 10 8 8 8 8 9 9 9 12 14 14 14 13 13 12 12 12 12 11 11 11 11 12 12 12 12 11 10 9 8 9 10 8 5 4 2 2 3 4 5 6 9 14 19
4 6 7 11 14 15 15 15 15 15 14 15 16 17 16 15 15 15 14 14 13 12 14 14 11 10 9 9 12 11 4 3 5 4 4 6 4 5 9 10 9 9 9 9 10 8 6 8 9 9 12 14 14 14 13 12 12 11 11 11 10 10 10 9 10 11 11 11 10 8 7 7 8 7 6 5 4 2 0 2 4 5 7 12 17 19
4 4 6 7 10 12 13 14 15 16 16 16 18 17 16 15 15 14 14 12 11 12 13 12 10 7 7 8 9 10 9 7 8 7 8 9 8 8 8 8 9 11 10 8 9 11 8 7 8 9 11 13 14 14 13 12 11 11 9 8 8 7 8 8 8 8 8 8 8 7 6 6 6 4 5 5 4 3 3 3 3 4 7 11 16 17
4 3 5 6 7 8 10 13 15 16 17 17 17 16 16 15 12 12 13 11 10 11 10 9 8 6 6 9 8 9 11 11 10 9 9 10 9 8 9 11 11 10 10 10 6 10 11 8 7 7 10 13 13 12 11 10 10 10 8 7 6 6 6 7 7 7 7 5 5 5 5 5 4 4 5 5 4 6 6 5 5 5 6 8 10 12
4 5 5 6 7 8 11 13 13 13 14 12 10 9 11 13 13 13 12 10 9 9 7 6 6 6 9 9 8 8 10 12 12 11 11 11 8 6 7 9 10 8 7 10 6 9 10 7 7 7 8 10 12 12 11 9 9 10 8 7 7 7 7 8 8 7 6 4 3 4 4 3 2 3 6 5 4 5 5 4 5 5 6 6 6 9
7 7 6 6 6 8 11 12 12 11 10 7 7 8 9 11 12 11 10 10 11 9 8 8 7 8 10 9 8 7 7 8 11 11 10 10 9 8 9 9 8 6 6 8 3 7 7 7 8 7 5 7 9 9 7 7 8 8 7 6 7 7 7 8 9 9 7 6 5 4 3 2 3 4 5 5 4 3 3 4 5 6 6 6 6 7
7 6 6 6 6 8 9 9 10 10 7 7 9 9 9 9 9 10 11 11 11 10 11 12 10 9 11 11 9 8 6 6 7 11 12 10 9 9 9 8 9 10 8 7 4 4 7 11 11 7 5 7 8 5 4 5 7 7 6 6 7 6 5 6 7 8 7 7 5 4 4 4 4 4 3 2 3 3 4 5 6 6 6 6 7 7
7 6 5 6 6 7 7 7 9 8 9 11 9 9 9 6 6 8 9 8 9 10 11 10 10 10 11 11 11 9 8 7 6 8 10 8 8 10 10 10 10 10 9 7 8 9 10 11 10 7 7 6 3 1 3 4 6 4 4 5 6 6 6 5 4 5 6 5 4 4 4 5 4 3 1 0 1 3 4 5 6 7 7 7 7 8
8 6 4 5 6 6 7 8 9 10 11 9 5 12 11 7 6 4 4 6 9 11 11 9 8 9 10 11 13 12 10 8 6 6 9 9 7 7 9 10 8 9 10 7 8 10 9 6 4 6 6 3 3 3 3 2 1 2 3 4 5 6 6 6 5 5 5 5 4 4 4 4 4 4 3 2 2 4 4 5 6 7 8 9 8 8
8 5 4 6 6 6 7 8 8 9 7 2 5 9 9 9 10 8 4 4 7 11 12 10 9 10 10 11 13 13 10 7 4 5 10 14 12 8 8 9 9 8 11 6 3 3 2 1 1 2 2 2 2 3 5 5 3 3 4 5 6 6 6 6 6 5 4 4 4 3 3 4 4 4 4 4 4 4 4 5 7 8 9 10 10 9
6 5 5 7 7 7 7 7 7 6 2 4 6 7 9 9 9 8 3 2 9 13 11 9 10 10 11 11 12 10 7 4 3 4 9 14 14 12 9 9 11 10 6 0 3 5 7 4 1 4 8 8 7 6 6 6 5 5 6 7 7 7 7 7 6 5 5 4 4 4 5 5 5 6 6 6 6 5 5 5 7 8 9 11 10 9
6 6 6 7 8 7 7 7 6 3 2 7 9 10 10 8 7 6 3 1 9 14 11 10 11 11 10 10 10 8 6 5 4 6 10 12 13 13 12 11 12 14 12 10 8 9 10 8 5 4 7 9 11 10 8 7 7 8 9 8 8 8 9 9 8 8 8 7 7 7 7 7 8 8 8 8 7 6 6 6 7 8 10 12 11 10
3 5 6 7 8 7 6 7 5 1 2 5 10 11 11 8 4 3 3 3 8 11 10 10 10 10 9 9 8 6 6 7 8 9 11 12 12 13 14 14 15 15 15 16 17 17 15 13 10 9 10 12 12 10 10 11 11 11 11 10 10 11 11 11 11 10 10 9 10 10 10 10 10 9 8 8 7 7 7 7 8 9 10 12 12 9
2 3 4 5 7 6 5 7 6 2 1 4 8 10 8 6 3 3 4 6 8 10 10 10 9 9 9 9 8 8 8 10 12 12 12 13 12 12 14 15 14 14 16 18 19 18 15 14 13 13 15 15 13 13 13 12 13 14 14 12 12 12 12 12 12 12 12 12 12 12 12 12 12 10 9 8 8 9 9 9 9 11 11 12 10 5
1 2 4 4 5 5 5 7 6 3 2 5 8 8 6 4 5 5 5 7 9 10 11 10 9 9 9 9 10 10 11 12 12 13 13 13 13 13 15 16 16 16 17 18 19 18 17 17 17 18 18 17 16 16 15 14 14 15 15 16 15 14 14 15 14 14 14 14 14 14 14 14 13 13 12 12 12 12 11 10 10 11 11 9 4 8
1 2 4 3 2 3 5 4 1 2 3 7 8 6 5 6 6 7 7 7 8 9 9 9 9 11 11 11 11 12 12 12 13 13 14 15 14 14 15 17 18 19 19 19 20 20 20 19 20 21 21 20 19 18 18 18 17 15 15 16 17 16 17 17 16 16 17 16 16 16 16 15 16 15 15 14 15 15 13 12 12 11 8 5 5 11
1 2 4 3 2 2 5 5 3 2 4 6 7 6 8 9 9 9 10 9 9 9 9 9 10 12 12 12 13 12 12 12 13 14 15 16 16 16 17 19 21 22 22 22 22 22 21 21 22 21 21 21 20 20 20 19 18 17 17 18 19 20 21 20 19 19 18 17 17 17 17 17 17 16 16 16 16 16 15 13 11 7 5 5 8 12
6 8 6 3 4 6 6 7 7 8 8 8 7 8 9 9 9 10 10 9 9 10 10 9 11 12 13 13 14 13 13 14 15 15 16 16 17 17 19 21 23 24 25 25 25 25 25 24 24 23 22 22 21 22 21 20 20 21 21 21 21 21 20 20 21 20 19 18 18 18 18 17 16 15 16 16 16 17 16 13 9 6 8 9 10 11
8 8 5 5 6 7 5 6 8 10 10 11 10 10 9 10 10 11 10 10 11 11 12 12 13 14 15 15 16 16 16 16 17 17 16 16 17 17 19 21 23 25 27 27 26 26 25 24 23 22 21 20 20 20 21 21 22 22 22 21 21 21 21 22 23 23 20 18 18 18 17 18 18 17 17 16 17 17 14 9 8 10 11 11 13 14
5 6 5 6 7 6 6 8 10 11 11 10 9 8 8 11 13 13 11 11 12 12 12 13 14 14 14 15 16 18 18 18 18 17 16 15 16 16 18 22 25 26 27 27 27 26 23 21 22 22 21 21 20 20 19 19 21 23 23 23 23 24 24 24 24 24 21 19 19 19 19 20 20 18 16 15 14 12 6 6 10 11 10 11 14 16
5 5 5 6 6 6 7 8 9 9 9 9 10 11 11 12 13 13 13 13 13 13 13 13 14 14 14 14 14 14 15 16 16 16 17 16 15 16 19 23 25 27 28 28 27 26 23 22 22 23 23 23 23 22 21 21 22 23 23 24 25 25 24 23 21 20 19 19 20 20 19 20 18 16 14 10 4 3 5 8 11 10 8 9 12 15
6 6 5 5 5 5 6 8 9 8 7 8 11 13 13 13 12 13 13 13 13 13 12 13 14 15 15 15 15 13 13 14 15 15 15 15 15 18 22 24 25 26 27 26 25 25 25 23 22 23 24 24 24 23 23 24 25 25 24 24 24 23 23 23 21 19 19 20 19 18 18 18 17 17 15 7 8 9 8 8 10 10 9 10 12 15
3 4 4 5 6 6 9 11 10 8 8 9 10 12 12 12 12 12 12 13 13 13 14 14 15 16 16 17 18 17 15 14 16 17 15 15 18 21 23 24 24 24 24 22 20 21 22 23 22 22 23 24 24 24 24 24 24 24 24 24 23 22 22 22 20 20 19 18 17 17 17 16 16 15 10 8 13 12 12 15 16 14 14 15 16 16
Wind_Direction
221 235 236 237 233 261 260 246 341 335 333 323 311 273 231 242 223 234 179 144 186 224 209 232 237 227 224 213 187 174 195 202 241 246 221 230 172 160 171 155 158 159 170 206 194 177 170 166 168 166 180 179 159 161 159 163 165 152 154 147 143 146 139 143 148 153 160 150 147 142 122 108 98 108 107 94 71 71 73 62 63 69 78 83 90 100
221 250 251 245 211 56 334 352 356 318 316 312 311 311 275 250 223 219 169 143 154 242 241 254 255 229 222 241 222 182 199 190 243 261 240 236 225 197 189 153 152 161 171 183 180 179 172 169 175 170 178 183 165 163 163 168 169 157 157 151 146 151 146 150 157 157 153 141 142 146 135 133 132 120 121 115 89 81 75 59 60 65 66 70 79 91
214 240 250 241 125 90 333 350 325 304 306 294 288 287 286 275 252 88 75 134 150 174 251 257 258 240 208 230 254 207 210 206 223 259 259 238 239 236 226 157 151 160 168 172 176 182 176 175 177 170 179 184 170 167 166 171 174 163 158 154 149 152 154 157 154 147 137 124 124 122 111 113 106 90 95 100 91 93 92 81 78 78 75 72 73 82
239 225 238 222 91 17 300 315 295 298 282 270 276 267 262 260 254 171 109 202 216 162 249 269 273 276 243 222 268 249 216 192 205 241 251 241 234 234 240 165 152 159 163 172 180 180 176 180 176 168 177 180 173 171 169 174 177 166 159 158 158 158 159 160 152 145 138 126 116 105 96 100 103 95 93 100 98 95 93 90 87 83 81 78 72 68
261 263 108 109 95 278 287 287 266 275 265 248 245 253 262 259 262 268 136 151 278 230 243 277 282 282 262 214 238 248 216 181 215 232 236 246 243 239 248 161 150 157 163 175 181 183 180 173 169 170 178 181 184 185 177 180 178 166 161 162 165 166 165 164 155 149 145 137 128 117 107 104 108 116 121 117 113 111 104 98 92 86 83 83 79 74
255 349 104 130 165 212 241 256 237 232 257 252 232 236 259 273 283 294 120 130 245 248 218 244 262 253 235 211 221 245 216 187 225 229 216 238 247 243 235 196 164 155 161 178 181 184 182 162 165 176 185 190 196 193 184 189 182 165 165 170 170 166 164 165 160 156 152 145 142 136 132 131 136 147 145 135 130 124 114 104 98 93 86 86 87 85
213 192 237 255 246 241 241 249 245 235 249 263 266 259 256 266 282 278 238 188 229 249 209 201 235 256 239 224 221 228 209 190 215 230 219 228 233 240 237 218 194 152 155 176 178 171 178 181 179 181 189 198 205 197 186 196 188 166 166 174 174 169 163 165 163 160 156 152 154 154 152 156 157 150 137 131 128 119 115 111 106 101 94 91 89 88
237 181 137 288 262 249 246 246 239 231 239 251 340 291 264 252 262 260 245 238 244 262 237 196 226 260 258 260 257 237 207 182 199 228 230 227 212 212 223 221 219 187 178 184 172 167 185 202 201 190 186 193 203 198 187 194 185 168 169 173 178 177 164 165 167 163 160 157 161 163 164 165 152 136 128 129 126 122 125 123 117 110 103 98 93 90
260 184 173 234 247 245 248 250 238 225 227 241 248 266 268 259 255 255 246 239 244 260 251 210 222 247 249 258 267 246 215 192 204 219 222 234 223 199 198 209 211 201 197 186 160 167 184 196 199 197 191 193 206 200 184 189 181 171 173 173 180 183 166 166 170 165 163 162 164 168 168 156 136 131 135 135 131 132 136 132 127 120 109 104 98 92
246 237 233 229 234 242 241 241 240 230 224 247 283 281 277 272 263 261 257 250 246 250 255 242 228 233 247 247 243 226 209 201 215 213 201 222 253 236 162 214 279 314 286 246 160 173 184 188 187 189 190 194 206 205 190 197 184 173 175 175 183 184 167 168 171 166 166 165 165 173 171 148 135 140 145 140 138 141 141 136 131 125 118 113 106 99
226 211 292 274 246 248 250 250 252 242 228 228 261 269 264 261 257 254 255 258 260 247 247 251 244 242 255 249 247 242 190 175 218 227 188 171 215 307 36 15 337 324 322 307 288 244 185 192 187 185 184 186 195 195 193 211 190 170 173 178 185 183 169 169 171 168 168 167 169 177 170 149 144 151 147 141 145 149 146 143 141 136 131 126 118 113
235 182 194 240 250 262 269 272 282 261 252 256 246 257 261 247 245 253 252 246 252 252 246 251 250 246 248 248 258 251 149 155 225 228 171 150 161 134 75 34 13 6 332 325 344 8 22 5 199 192 192 190 188 179 181 191 185 170 173 179 184 179 169 170 171 170 168 167 171 178 168 153 152 155 148 147 153 156 153 153 150 143 136 135 136 133
252 236 213 202 208 240 257 257 253 233 234 254 248 250 260 249 242 250 248 239 241 253 262 273 271 255 241 249 265 223 136 162 204 171 153 157 154 128 108 101 84 60 357 8 32 23 16 4 323 221 201 192 186 181 181 182 181 180 180 181 183 176 169 170 171 170 169 168 172 177 171 158 155 157 153 153 159 160 159 159 155 149 145 147 150 151
238 261 251 219 183 198 235 245 239 219 200 226 240 238 244 245 249 247 244 246 247 260 267 270 285 275 247 241 242 203 148 169 168 139 146 146 129 127 143 144 123 102 54 44 50 37 12 347 321 287 218 186 182 185 183 175 175 182 183 180 177 170 168 170 169 169 170 170 173 176 173 163 159 160 157 158 162 163 163 163 162 158 156 159 161 161
237 253 236 225 177 162 211 243 258 271 233 216 235 251 250 238 244 252 252 255 259 278 273 253 246 255 255 254 206 161 139 147 155 148 142 130 126 151 174 146 110 93 76 65 60 57 32 354 333 327 317 172 173 172 158 149 160 172 187 192 179 166 165 168 166 169 173 172 173 175 173 168 164 163 161 162 166 168 167 167 170 167 164 164 167 167
242 252 201 209 158 125 222 243 254 286 281 214 218 249 254 237 239 258 271 277 283 287 269 243 231 239 224 39 137 149 141 155 172 160 149 151 159 162 154 123 97 86 86 83 62 56 45 21 351 335 358 121 150 148 141 146 157 165 182 213 204 167 162 166 164 167 176 175 172 174 173 171 169 167 166 167 169 172 172 172 174 175 171 169 170 171
250 261 170 185 170 178 244 259 238 254 286 296 238 244 262 255 246 262 271 270 265 260 257 232 234 240 207 197 201 177 174 189 180 160 162 164 153 134 118 110 105 93 86 86 65 51 45 28 23 3 17 93 130 141 149 159 164 169 178 195 208 179 161 164 164 165 176 178 173 173 173 173 172 171 172 171 169 173 177 176 177 178 177 175 172 173
290 287 205 191 205 210 222 270 289 259 269 282 262 264 301 257 242 248 266 263 249 254 259 242 240 240 236 214 184 190 209 206 179 170 174 158 137 130 122 109 104 100 92 93 84 64 55 32 25 23 30 83 118 143 157 164 164 173 183 186 189 181 161 159 163 166 174 176 173 175 174 174 173 172 176 178 172 173 179 178 176 180 183 176 172 174
293 278 277 264 260 238 192 193 261 259 250 254 271 297 298 263 251 242 252 261 256 259 259 256 255 247 253 245 174 188 208 202 185 189 184 162 156 155 133 122 116 113 107 99 98 85 70 59 40 25 32 81 111 136 147 158 160 172 195 190 177 169 154 152 160 165 170 171 171 175 175 176 176 171 173 178 176 174 179 183 178 181 187 181 174 174
273 274 278 265 269 269 218 192 244 255 235 228 242 270 273 277 279 257 251 262 264 269 270 269 268 256 274 296 165 177 198 201 194 201 196 174 171 156 130 132 127 119 117 105 102 99 85 80 66 37 34 64 79 99 120 153 182 176 200 189 169 160 149 149 154 158 165 172 175 175 176 175 172 171 170 168 166 166 172 182 184 185 188 183 176 172
280 276 271 272 279 276 252 225 252 275 270 239 225 237 246 257 264 258 255 251 256 265 270 274 279 285 306 314 139 171 198 205 199 206 211 183 162 144 130 137 131 116 116 112 110 111 104 99 95 75 53 52 52 64 88 123 199 190 179 154 145 144 141 145 151 155 161 168 168 166 172 173 170 180 184 172 155 160 167 178 192 204 198 186 180 174
278 275 265 269 274 266 253 244 254 267 282 288 278 258 257 262 265 270 262 254 264 276 281 278 282 308 234 237 120 170 193 198 198 200 206 181 149 133 126 129 131 125 120 116 118 119 118 115 109 103 92 70 55 50 55 60 86 140 140 129 128 130 134 146 161 164 165 166 170 174 178 177 175 181 186 186 182 174 177 184 198 221 207 187 185 183
72 279 274 268 263 270 275 274 278 281 270 274 286 281 276 278 269 262 263 268 281 282 286 282 279 342 356 354 56 36 9 172 182 190 205 178 136 124 130 133 132 129 124 120 118 115 115 116 112 108 104 96 80 64 56 53 54 64 90 118 133 137 143 154 162 169 177 173 176 185 181 176 183 187 185 195 203 194 185 188 198 232 219 203 204 200
73 243 262 271 276 280 278 269 272 276 260 246 259 264 271 273 265 265 273 286 284 270 273 275 263 272 334 346 45 46 282 239 183 188 211 174 129 126 139 137 136 134 129 124 122 124 122 119 116 112 108 104 95 83 73 64 57 58 70 88 108 130 146 156 162 176 191 190 181 189 184 173 182 187 179 188 199 195 187 190 197 215 230 219 227 236
310 248 240 261 277 277 266 249 245 257 259 246 250 269 284 282 275 270 270 277 280 274 274 277 271 262 9 343 325 257 266 228 166 168 174 138 131 150 159 145 141 141 136 133 131 133 131 125 120 118 115 112 110 108 97 83 72 65 64 67 74 93 115 131 149 166 177 175 165 169 171 157 163 177 169 167 177 180 182 192 206 224 235 224 250 288
277 283 269 265 269 267 266 266 272 325 316 296 292 290 285 292 298 294 279 263 263 273 274 270 274 287 115 147 303 325 306 271 186 180 171 146 148 169 165 152 148 141 139 136 130 126 122 120 119 118 117 116 115 115 110 101 92 82 75 70 68 70 77 89 107 117 124 132 132 130 127 118 112 138 170 177 183 189 196 202 219 243 250 253 277 292
283 283 276 270 270 274 280 292 310 328 314 293 291 280 269 276 296 299 285 266 273 285 278 269 278 294 289 178 59 19 323 296 295 281 229 159 157 166 145 143 157 152 142 131 123 122 116 109 109 109 109 112 114 113 110 107 103 99 96 90 83 77 74 78 85 93 99 103 100 98 103 105 101 100 122 172 191 198 205 202 203 229 243 250 263 267
270 257 258 263 265 270 276 286 295 300 290 282 285 287 285 288 293 290 278 275 288 288 271 280 302 308 313 318 340 43 7 310 306 324 317 184 150 146 148 183 198 177 157 145 135 132 126 119 115 113 109 107 107 104 101 101 101 100 100 97 95 94 93 93 95 96 96 95 89 84 89 97 101 104 110 129 157 178 192 183 177 193 217 230 237 243
247 250 252 260 262 265 269 274 277 279 280 281 281 279 280 283 282 275 264 265 276 275 272 288 303 294 299 310 306 322 42 316 296 317 289 245 177 159 179 204 207 183 168 164 149 136 132 131 127 123 120 116 113 111 108 106 104 100 98 97 96 96 96 101 107 105 99 99 96 87 83 88 96 103 114 130 144 165 182 169 165 172 195 224 231 233
223 250 256 264 267 268 268 272 277 277 278 281 280 274 271 273 276 275 272 269 268 266 270 281 288 284 292 306 306 311 325 268 277 292 267 259 240 203 204 211 219 214 198 178 158 147 144 140 133 129 127 126 126 126 123 120 118 112 105 101 98 97 95 92 96 101 99 99 103 101 97 98 98 99 108 123 130 127 276 246 239 222 221 237 240 241
176 247 273 280 278 275 277 282 282 277 275 277 281 282 282 283 285 286 288 287 279 270 273 284 292 296 306 309 309 316 322 300 275 271 271 262 251 252 244 229 236 247 240 211 173 156 152 152 146 138 132 128 127 126 123 123 125 121 114 110 107 105 104 99 96 98 100 103 111 116 111 103 99 90 85 89 85 53 16 348 314 267 254 250 245 247
169 247 288 290 277 275 278 277 275 276 276 273 274 282 285 280 276 272 270 273 278 280 287 294 290 295 321 324 324 337 344 335 325 330 326 294 265 262 263 243 234 241 254 256 215 156 152 161 156 140 133 133 133 133 136 142 143 138 134 136 138 131 119 113 112 111 110 109 113 116 110 102 98 87 82 75 48 33 25 7 347 309 282 267 251 251
234 254 271 270 271 278 277 278 287 289 279 270 273 288 290 283 278 275 273 280 293 297 296 289 291 329 348 340 334 347 353 346 345 353 348 331 324 336 321 279 249 233 252 268 236 161 156 161 146 132 134 142 142 137 142 148 140 132 133 143 151 150 144 142 141 137 130 122 109 104 105 111 115 94 80 68 44 31 16 341 318 304 294 283 262 252
254 258 267 267 270 277 280 289 295 281 265 272 285 283 283 287 288 292 303 315 318 320 316 301 305 341 344 327 318 333 341 338 340 338 331 331 334 339 347 332 301 293 313 306 262 156 142 124 115 108 102 112 108 106 117 125 120 124 138 158 160 157 164 168 158 150 151 149 140 133 138 136 101 77 62 48 33 12 341 318 307 299 287 274 268 264
250 258 269 269 267 272 280 285 275 262 265 278 278 282 289 292 297 302 305 309 314 329 334 326 332 344 338 332 334 332 324 327 337 329 324 339 353 344 348 352 335 336 352 2 31 87 99 100 104 101 89 94 97 105 143 142 134 152 176 177 168 164 184 193 168 157 161 158 156 164 160 143 107 79 61 33 10 339 318 309 301 294 282 263 255 261
256 257 258 261 267 271 274 265 256 266 284 279 291 347 350 315 292 289 289 306 328 341 345 343 347 344 334 338 342 333 334 350 349 320 313 342 16 5 357 5 7 11 20 39 63 72 76 85 96 95 74 57 49 143 186 145 135 170 192 177 178 187 196 204 193 179 170 160 173 186 160 142 130 116 110 17 326 309 305 305 302 298 290 275 260 259
247 247 246 252 259 263 265 263 264 277 284 281 337 28 23 8 6 356 325 330 340 350 353 343 339 341 341 349 352 350 356 3 354 331 336 352 9 5 360 355 4 38 49 37 47 66 69 64 80 99 90 57 338 345 354 25 106 219 235 218 219 216 205 207 218 213 192 182 202 202 169 164 174 176 188 217 248 273 290 298 299 298 293 283 269 262
235 236 242 246 249 258 264 266 270 273 279 327 46 48 41 25 14 8 356 343 357 13 13 358 351 358 1 1 359 358 360 357 354 359 357 355 353 359 9 346 340 37 71 76 75 99 161 252 333 332 347 358 347 333 318 304 279 254 253 253 253 248 237 232 234 232 219 214 229 227 203 206 210 203 210 228 244 260 271 282 289 291 289 285 275 265
226 229 250 255 252 256 259 262 267 264 287 26 20 23 35 27 359 339 320 1 6 6 5 357 355 359 360 356 353 351 345 339 1 7 350 347 347 347 351 338 332 354 18 324 216 239 259 269 331 307 319 334 319 293 284 286 286 274 263 264 269 267 266 268 270 274 276 272 272 273 260 246 237 235 236 238 242 248 257 273 285 288 287 284 274 262
243 243 249 250 249 252 254 259 267 254 62 29 9 2 7 9 358 334 289 359 3 355 355 1 356 349 348 348 344 339 332 328 347 350 337 334 335 333 333 331 330 334 329 312 308 316 324 341 356 317 297 287 276 274 276 274 276 277 272 271 275 276 276 279 281 279 279 282 284 282 275 264 251 243 240 238 239 242 248 262 275 282 285 283 274 267
258 262 256 248 248 253 253 257 263 212 78 9 5 357 342 338 349 331 303 337 349 341 342 348 345 337 336 334 328 324 325 327 331 333 328 324 325 328 329 326 323 320 313 311 323 335 336 332 324 305 286 283 286 292 290 281 273 271 269 265 264 266 267 268 269 273 277 280 283 282 278 275 269 261 253 249 247 248 250 259 270 275 278 278 273 266
220 257 261 253 252 254 254 259 264 237 216 329 357 358 343 334 342 335 329 333 331 330 332 330 327 329 327 320 314 312 313 318 319 317 315 315 316 317 315 311 310 308 302 304 314 320 316 309 303 289 280 282 283 277 274 278 277 274 271 268 265 267 270 271 270 272 273 271 272 273 273 275 276 273 268 264 263 261 255 256 266 269 270 275 271 226
248 255 251 247 254 258 251 254 259 256 298 337 351 358 4 3 353 346 339 329 325 326 325 319 317 319 317 312 313 312 309 311 313 309 306 306 305 306 306 305 303 299 295 293 293 292 292 292 290 285 283 286 288 285 281 276 270 269 271 271 270 270 272 272 271 272 273 271 271 272 273 274 275 271 267 264 262 261 256 253 263 267 266 273 255 161
335 273 274 285 314 278 256 255 227 199 276 329 345 349 352 349 337 331 324 318 319 317 313 310 312 316 317 315 313 310 307 304 303 300 298 297 299 300 299 299 299 295 291 289 287 288 292 291 286 285 286 284 282 282 282 277 271 270 270 271 272 273 272 271 272 273 272 270 271 271 270 269 268 265 263 259 258 257 250 245 255 262 260 254 196 163
65 28 338 330 349 310 289 306 338 284 287 335 357 347 338 336 329 322 313 306 309 310 309 314 319 323 326 321 313 309 306 301 299 297 294 292 292 292 290 288 290 289 287 285 284 284 285 283 280 280 281 281 279 277 278 281 281 276 270 267 268 268 269 269 270 269 268 269 270 269 268 265 262 259 257 254 255 256 250 243 246 240 193 168 173 166
32 18 2 336 314 311 303 304 315 317 320 333 333 321 322 321 320 326 326 325 331 332 328 324 319 317 317 312 306 302 299 298 297 293 291 291 290 290 290 287 286 284 282 280 278 276 275 273 271 271 271 272 275 277 277 276 273 267 263 262 262 263 265 268 270 269 268 270 272 273 273 272 268 268 267 261 256 254 250 246 237 193 160 160 169 166
47 22 348 310 299 300 301 309 319 320 319 319 316 316 324 331 339 350 352 346 344 339 331 324 315 311 308 305 302 300 298 299 298 294 293 294 291 289 290 289 287 286 284 282 279 277 275 274 273 276 277 274 271 270 271 272 272 272 271 269 267 264 263 263 264 262 258 257 262 267 272 272 268 266 267 269 271 267 256 234 196 176 171 173 172 167
48 29 339 301 290 288 297 312 317 312 310 314 318 325 340 346 347 346 339 331 327 322 318 316 312 309 306 303 303 302 300 300 300 298 296 296 294 294 293 290 289 288 286 285 285 284 286 289 286 285 289 292 290 286 280 276 276 276 275 273 270 268 265 260 255 253 251 253 257 257 257 258 258 255 253 261 275 279 255 188 173 174 180 186 180 172
319 330 312 300 296 290 291 306 322 323 317 319 326 334 341 341 332 326 322 319 315 312 311 311 308 303 301 300 300 299 298 296 296 295 295 293 292 293 293 293 294 294 292 292 294 294 294 298 298 295 294 295 296 294 291 285 280 276 274 273 271 272 275 276 271 268 267 268 265 261 260 262 263 264 263 258 239 175 165 169 172 173 179 193 187 176
295 296 309 311 300 294 307 331 346 339 313 309 321 326 325 321 315 315 315 312 311 313 314 313 310 307 303 301 298 294 291 292 293 293 294 294 293 292 291 290 289 290 291 296 305 307 300 296 297 298 295 292 292 291 289 286 282 278 275 272 269 267 269 274 277 275 272 270 266 263 265 267 266 265 263 236 156 145 146 147 154 162 166 170 171 170
327 343 2 335 306 305 319 329 335 323 301 305 317 315 310 311 312 311 313 316 318 321 322 319 316 313 309 306 306 305 303 303 305 305 303 301 300 298 295 293 292 291 292 296 305 307 300 294 292 290 287 288 289 286 283 282 281 281 278 276 275 274 271 270 271 270 267 266 264 261 262 265 266 264 246 172 151 152 139 121 117 125 135 144 151 155